TimeEST,TemperatureF,Dew PointF,Humidity,Sea Level PressureIn,VisibilityMPH,Wind Direction,Wind SpeedMPH,Gust SpeedMPH,PrecipitationIn,Events,Conditions,WindDirDegrees,DateUTC
12:14 AM,32.0,22.1,67,30.16,10.0,WNW,5.8,-,N/A,,Overcast,300,2012-11-06 05:14:00
12:34 AM,31.8,22.1,67,30.15,10.0,Calm,Calm,-,N/A,,Overcast,0,2012-11-06 05:34:00
12:54 AM,31.8,22.1,67,30.15,10.0,Calm,Calm,-,N/A,,Overcast,0,2012-11-06 05:54:00
1:14 AM,31.8,22.5,68,30.15,10.0,Calm,Calm,-,N/A,,Overcast,0,2012-11-06 06:14:00
1:34 AM,31.3,23.2,72,30.15,10.0,Calm,Calm,-,N/A,,Overcast,0,2012-11-06 06:34:00
1:54 AM,31.6,22.1,68,30.15,10.0,Calm,Calm,-,N/A,,Overcast,0,2012-11-06 06:54:00
2:14 AM,31.8,22.1,67,30.15,10.0,Calm,Calm,-,N/A,,Overcast,0,2012-11-06 07:14:00
2:34 AM,32.0,22.5,68,30.15,10.0,Calm,Calm,-,N/A,,Overcast,0,2012-11-06 07:34:00
2:53 AM,31.8,22.5,68,30.14,10.0,Calm,Calm,-,N/A,,Overcast,0,2012-11-06 07:53:00
3:14 AM,31.6,21.4,66,30.13,10.0,Calm,Calm,-,N/A,,Overcast,0,2012-11-06 08:14:00
3:34 AM,31.1,22.1,69,30.13,10.0,Calm,Calm,-,N/A,,Overcast,0,2012-11-06 08:34:00
3:53 AM,30.9,22.1,70,30.12,10.0,Calm,Calm,-,N/A,,Overcast,0,2012-11-06 08:53:00
4:14 AM,30.7,22.5,71,30.11,10.0,Calm,Calm,-,N/A,,Overcast,0,2012-11-06 09:14:00
4:34 AM,30.7,22.5,71,30.11,10.0,Calm,Calm,-,N/A,,Overcast,0,2012-11-06 09:34:00
4:54 AM,30.7,22.8,72,30.11,10.0,Calm,Calm,-,N/A,,Overcast,0,2012-11-06 09:54:00
5:14 AM,30.9,22.8,72,30.10,10.0,Calm,Calm,-,N/A,,Overcast,0,2012-11-06 10:14:00
5:34 AM,30.7,23.0,73,30.10,10.0,Calm,Calm,-,N/A,,Overcast,0,2012-11-06 10:34:00
5:54 AM,30.6,23.5,75,30.10,10.0,Calm,Calm,-,N/A,,Overcast,0,2012-11-06 10:54:00
6:14 AM,30.7,23.5,75,30.10,10.0,Calm,Calm,-,N/A,,Overcast,0,2012-11-06 11:14:00
6:34 AM,30.7,24.4,77,30.10,10.0,Calm,Calm,-,N/A,,Overcast,0,2012-11-06 11:34:00
6:54 AM,30.9,24.1,76,30.10,10.0,Calm,Calm,-,N/A,,Overcast,0,2012-11-06 11:54:00
7:14 AM,31.1,24.1,75,30.10,10.0,Calm,Calm,-,N/A,,Overcast,0,2012-11-06 12:14:00
7:34 AM,31.1,24.6,77,30.10,10.0,Calm,Calm,-,N/A,,Overcast,0,2012-11-06 12:34:00
7:54 AM,31.1,24.4,76,30.09,10.0,Calm,Calm,-,N/A,,Overcast,0,2012-11-06 12:54:00
8:14 AM,31.8,24.1,73,30.10,10.0,Calm,Calm,-,N/A,,Overcast,0,2012-11-06 13:14:00
8:34 AM,32.0,24.6,74,30.09,10.0,Calm,Calm,-,N/A,,Overcast,0,2012-11-06 13:34:00
8:54 AM,32.4,24.8,74,30.09,10.0,Calm,Calm,-,N/A,,Overcast,0,2012-11-06 13:54:00
9:14 AM,33.3,25.2,72,30.09,10.0,Calm,Calm,-,N/A,,Overcast,0,2012-11-06 14:14:00
9:34 AM,33.8,25.7,72,30.09,10.0,Calm,Calm,-,N/A,,Overcast,0,2012-11-06 14:34:00
9:54 AM,33.6,26.4,75,30.09,10.0,Calm,Calm,-,N/A,,Overcast,0,2012-11-06 14:54:00
10:14 AM,34.7,26.4,72,30.09,10.0,SW,3.5,-,N/A,,Overcast,230,2012-11-06 15:14:00
10:33 AM,35.1,26.8,72,30.09,10.0,SW,3.5,-,N/A,,Overcast,220,2012-11-06 15:33:00
10:54 AM,36.0,25.2,65,30.09,10.0,WSW,5.8,-,N/A,,Overcast,240,2012-11-06 15:54:00
11:14 AM,36.1,24.6,63,30.09,10.0,SW,3.5,-,N/A,,Overcast,230,2012-11-06 16:14:00
11:33 AM,36.7,24.4,61,30.08,10.0,South,4.6,-,N/A,,Overcast,170,2012-11-06 16:33:00
11:54 AM,36.5,25.5,64,30.07,10.0,SSE,5.8,-,N/A,,Overcast,150,2012-11-06 16:54:00
12:14 PM,36.5,26.2,66,30.06,10.0,South,3.5,-,N/A,,Overcast,170,2012-11-06 17:14:00
12:34 PM,36.7,26.6,67,30.05,10.0,SSE,3.5,-,N/A,,Overcast,160,2012-11-06 17:34:00
12:54 PM,36.9,27.3,68,30.05,10.0,Calm,Calm,-,N/A,,Overcast,0,2012-11-06 17:54:00
1:14 PM,37.4,27.5,67,30.03,10.0,South,4.6,-,N/A,,Overcast,170,2012-11-06 18:14:00
1:34 PM,37.4,27.5,67,30.03,10.0,South,6.9,-,N/A,,Overcast,190,2012-11-06 18:34:00
1:54 PM,37.6,25.7,62,30.03,10.0,South,6.9,-,N/A,,Overcast,170,2012-11-06 18:54:00
2:14 PM,37.8,25.2,60,30.03,10.0,SSW,6.9,-,N/A,,Overcast,200,2012-11-06 19:14:00
2:34 PM,37.9,24.8,59,30.03,10.0,South,6.9,-,N/A,,Overcast,180,2012-11-06 19:34:00
2:54 PM,37.9,24.4,58,30.02,10.0,South,6.9,-,N/A,,Overcast,180,2012-11-06 19:54:00
3:14 PM,37.8,23.4,56,30.02,10.0,South,5.8,-,N/A,,Overcast,190,2012-11-06 20:14:00
3:34 PM,37.8,23.5,57,30.02,10.0,South,4.6,-,N/A,,Overcast,180,2012-11-06 20:34:00
3:54 PM,37.8,23.7,57,30.02,10.0,SSE,4.6,-,N/A,,Overcast,160,2012-11-06 20:54:00
4:14 PM,37.8,23.7,57,30.02,10.0,South,5.8,-,N/A,,Overcast,170,2012-11-06 21:14:00
4:34 PM,37.6,23.4,57,30.02,10.0,SSE,5.8,-,N/A,,Overcast,160,2012-11-06 21:34:00
4:54 PM,37.4,23.4,57,30.02,10.0,South,4.6,-,N/A,,Overcast,170,2012-11-06 21:54:00
5:14 PM,37.4,23.7,58,30.02,10.0,SSE,4.6,-,N/A,,Overcast,150,2012-11-06 22:14:00
5:34 PM,36.9,23.7,59,30.02,10.0,SSE,4.6,-,N/A,,Overcast,150,2012-11-06 22:34:00
5:54 PM,36.5,23.9,60,30.02,10.0,SE,3.5,-,N/A,,Overcast,140,2012-11-06 22:54:00
6:14 PM,36.5,24.3,61,30.02,10.0,Calm,Calm,-,N/A,,Overcast,0,2012-11-06 23:14:00
6:34 PM,36.7,23.9,60,30.02,10.0,Calm,Calm,-,N/A,,Overcast,0,2012-11-06 23:34:00
6:54 PM,36.7,23.9,60,30.02,10.0,Calm,Calm,-,N/A,,Overcast,0,2012-11-06 23:54:00
7:14 PM,36.5,24.1,61,30.02,10.0,Calm,Calm,-,N/A,,Overcast,0,2012-11-07 00:14:00
7:34 PM,36.7,24.3,61,30.03,10.0,SE,3.5,-,N/A,,Overcast,130,2012-11-07 00:34:00
7:54 PM,37.0,25.7,64,30.03,10.0,SE,3.5,-,N/A,,Overcast,130,2012-11-07 00:54:00
8:14 PM,37.4,26.4,65,30.02,10.0,SE,6.9,-,N/A,,Overcast,140,2012-11-07 01:14:00
8:34 PM,37.4,26.2,64,30.02,10.0,SE,4.6,-,N/A,,Overcast,140,2012-11-07 01:34:00
8:54 PM,37.6,26.2,64,30.03,10.0,SE,4.6,-,N/A,,Overcast,140,2012-11-07 01:54:00
9:14 PM,37.8,25.7,62,30.03,10.0,SSE,8.1,-,N/A,,Overcast,160,2012-11-07 02:14:00
9:34 PM,37.8,25.9,62,30.03,10.0,SSE,5.8,-,N/A,,Overcast,160,2012-11-07 02:34:00
9:54 PM,37.6,25.5,62,30.03,10.0,SSE,3.5,-,N/A,,Overcast,160,2012-11-07 02:54:00
10:14 PM,37.4,25.7,63,30.03,10.0,South,4.6,-,N/A,,Overcast,170,2012-11-07 03:14:00
10:34 PM,37.4,26.1,64,30.03,10.0,South,4.6,-,N/A,,Overcast,170,2012-11-07 03:34:00
10:54 PM,37.4,26.2,64,30.03,10.0,South,3.5,-,N/A,,Overcast,170,2012-11-07 03:54:00
11:14 PM,37.0,26.4,65,30.03,10.0,SSE,3.5,-,N/A,,Overcast,160,2012-11-07 04:14:00
11:34 PM,36.9,26.4,66,30.03,10.0,Calm,Calm,-,N/A,,Overcast,0,2012-11-07 04:34:00
11:54 PM,36.7,26.4,66,30.03,10.0,Calm,Calm,-,N/A,,Overcast,0,2012-11-07 04:54:00